Hayward, WI

6:49 PM CDT on September 20, 2019 (GMT -0500)
Sawyer County

Weather History for KHYR - August, 2019

Change the Weather History Date:

Wednesday, August 21, 2019

  Actual Average Record
Temperature  
Mean Temperature 60 °F -  
Max Temperature 73 °F 67 °F 86 °F (2006)
Min Temperature 48 °F 51 °F 32 °F (2004)
Degree Days  
Heating Degree Days 5    
Growing Degree Days 10 (Base 50)    
Moisture  
Dew Point 50 °F    
Average Humidity 80    
Maximum Humidity 97    
Minimum Humidity 39    
Precipitation  
Precipitation 0.00 in - - ()
Sea Level Pressure  
Sea Level Pressure 30.03 in    
Wind  
Wind Speed 1 mph (North)    
Max Wind Speed 8 mph    
Max Gust Speed 20 mph    
Visibility 6 miles    
Events Fog    
Averages and records for this station are not official NWS values.
T = Trace of Precipitation, MM = Missing Value Source: NWS Daily Summary

Daily Weather History Graph

Daily Weather History Graph

Search for Another Location

Airport or City:

Astronomy

Aug. 21, 2019 Rise Set
Actual Time 6:12 AM CDT 8:04 PM CDT
Civil Twilight 5:40 AM CDT 8:36 PM CDT
Nautical Twilight 5:01 AM CDT 9:15 PM CDT
Astronomical Twilight 4:18 AM CDT 9:58 PM CDT
Moon 11:03 PM CDT (8/21) 12:06 PM CDT (8/21)
Length of Visible Light 14h 55m
Length of Day
13h 52m
Waning Gibbous, 69% of the Moon is Illuminated
Aug 21
Waning Gibbous
Aug 23
Last Quarter
Aug 30
New
Sep 5
First Quarter
Sep 13
Full

Hourly Weather History & Observations

Time (CDT) Temp. Dew Point Humidity Pressure Visibility Wind Dir Wind Speed Gust Speed Precip Events Conditions
12:53 AM 60.1 °F 57.0 °F 90% 30.02 in 9.0 mi Calm Calm - N/A   Clear
1:24 AM 57.9 °F 55.9 °F 93% 30.04 in 1.5 mi Calm Calm - N/A   Partly Cloudy
1:34 AM 57.9 °F 55.9 °F 93% 30.04 in 3.0 mi Calm Calm - N/A   Mostly Cloudy
1:53 AM 59.0 °F 55.9 °F 90% 30.04 in 10.0 mi Calm Calm - N/A   Mostly Cloudy
2:15 AM 55.9 °F 54.0 °F 93% 30.04 in 1.8 mi Calm Calm - N/A   Scattered Clouds
2:27 AM 55.9 °F 54.0 °F 93% 30.05 in 3.0 mi Calm Calm - N/A   Mostly Cloudy
2:53 AM 57.0 °F 54.0 °F 89% 30.04 in 9.0 mi Calm Calm - N/A   Mostly Cloudy
3:53 AM 55.0 °F 52.0 °F 89% 30.03 in 10.0 mi Calm Calm - N/A   Clear
4:11 AM 53.1 °F 51.1 °F 93% 30.02 in 1.0 mi Calm Calm - N/A   Clear
4:20 AM 51.1 °F 50.0 °F 96% 30.02 in 0.5 mi Calm Calm - N/A Fog Fog
4:30 AM 51.1 °F 48.9 °F 92% 30.00 in 2.5 mi NNE 3.5 mph - N/A   Scattered Clouds
4:37 AM 50.0 °F 48.9 °F 96% 30.00 in 5.0 mi NE 3.5 mph - N/A   Partly Cloudy
4:53 AM 52.0 °F 50.0 °F 93% 30.00 in 9.0 mi Calm Calm - N/A   Partly Cloudy
5:01 AM 51.1 °F 48.0 °F 89% 30.00 in 0.8 mi Calm Calm - N/A   Clear
5:14 AM 52.0 °F 48.9 °F 89% 30.00 in 2.0 mi Calm Calm - N/A   Clear
5:21 AM 50.0 °F 48.0 °F 93% 30.00 in 5.0 mi Calm Calm - N/A   Clear
5:33 AM 50.0 °F 48.0 °F 93% 29.99 in 1.5 mi Calm Calm - N/A   Clear
5:35 AM 48.9 °F 48.0 °F 97% 29.99 in 0.8 mi Calm Calm - N/A   Clear
5:48 AM 48.2 °F 46.4 °F 93% 29.99 in 0.2 mi Calm Calm - N/A Fog Fog
5:53 AM 48.0 °F 46.0 °F 93% 29.99 in 0.2 mi Calm Calm - N/A Fog Fog
6:32 AM 48.9 °F 46.9 °F 93% 29.99 in 1.8 mi Calm Calm - N/A   Mostly Cloudy
6:36 AM 48.0 °F 46.9 °F 96% 30.00 in 0.5 mi Calm Calm - N/A Fog Fog
6:53 AM 48.9 °F 48.0 °F 97% 30.01 in 0.2 mi Calm Calm - N/A Fog Fog
7:00 AM 48.0 °F 46.9 °F 96% 30.03 in 2.0 mi Calm Calm - N/A   Partly Cloudy
7:08 AM 50.0 °F 48.0 °F 93% 30.04 in 5.0 mi SSW 4.6 mph - N/A   Partly Cloudy
7:53 AM 55.0 °F 53.1 °F 93% 30.05 in 10.0 mi South 3.5 mph - N/A   Clear
8:53 AM 61.0 °F 53.1 °F 75% 30.05 in 10.0 mi Calm Calm - N/A   Clear
9:53 AM 64.9 °F 53.1 °F 65% 30.05 in 10.0 mi Variable 5.8 mph - N/A   Clear
10:53 AM 68.0 °F 50.0 °F 52% 30.07 in 10.0 mi Variable 5.8 mph - N/A   Clear
11:53 AM 70.0 °F 46.0 °F 42% 30.05 in 10.0 mi North - - N/A   Clear
12:53 PM 70.0 °F 44.1 °F 39% 30.05 in 10.0 mi North 8.1 mph 19.6 mph N/A   Clear
1:53 PM 70.0 °F 45.0 °F 41% 30.05 in 10.0 mi Variable 4.6 mph - N/A   Mostly Cloudy
2:53 PM 71.1 °F 45.0 °F 39% 30.04 in 10.0 mi North 6.9 mph - N/A   Mostly Cloudy
3:53 PM 72.0 °F 46.9 °F 41% 30.04 in 10.0 mi West 8.1 mph - N/A   Mostly Cloudy
4:53 PM 70.0 °F 46.0 °F 42% 30.04 in 10.0 mi Calm Calm - N/A   Partly Cloudy
5:53 PM 72.0 °F 46.9 °F 41% 30.04 in 10.0 mi Variable 5.8 mph - N/A   Overcast
6:53 PM 69.1 °F 50.0 °F 51% 30.03 in 10.0 mi North 3.5 mph - N/A   Mostly Cloudy
7:53 PM 64.9 °F 52.0 °F 63% 30.02 in 10.0 mi Calm Calm - N/A   Mostly Cloudy
8:53 PM 59.0 °F 54.0 °F 83% 30.03 in 10.0 mi Calm Calm - N/A   Mostly Cloudy
9:53 PM 54.0 °F 51.1 °F 90% 30.05 in 10.0 mi Calm Calm - N/A   Clear
11:53 PM 54.0 °F 50.0 °F 86% 30.06 in 10.0 mi Calm Calm - N/A   Overcast